Showing default

NINGXIA-1 1, 44779

Orbit data source: Space-Track

NINGXIA-1 1, 44779 is a Chinese payload satellite in LEO that was launched on Wed, 13 Nov 2019 UTC via a CHANG ZHENG 6 launch vehicle from the Taiyaun Space Center, China (TSC). Payload-class satellites include a variety of spacecraft equipped with specific instruments for various scientific and technological missions. These include communications satellites like Starlink; space stations such as the ISS; scientific satellites like the Hubble; Earth observation satellites from companies like Planet Labs, Umbra, and HawkEye 360; GPS; miniature CubeSats for education and research; and military/defense satellites.

Loading next visibility...
Identifier
44779, 2019-076A
Orbit
LEO
Country
Flag of CNCN / PRC
Related business
Manufacturer
DFH
Mission
Operational Commercial Sigint
Bus & Motor
NX-1, Unknown motor
Mass
~100 kg wet, ~100 kg dry
Launch date (UTC)
2019-11-13 (6 years ago)
Launch vehicle
CHANG ZHENG 6
Launch site
Taiyaun Space Center, China (TSC)
Object type
Payload
Rocket body
Debris
Shape & HBR
Box + 2 Pan, Unknown HBR
Radar Cross Section
0.166 m², Large (>1 m²)

Expand to show TLE details & history
Last TLE update: 10 hours ago

TLE from 10 hours ago
0 NINGXIA-1 1
1 44779U 19076A   25258.97619208 -.00000051  00000-0  50967-4 0  9996
2 44779  45.0070 325.1998 0011942 294.3496  65.6091 14.01975822299376
Epoch: 2025-09-15T23:25Z
TLE epoch observation values (Epoch: 2025-09-15T23:25:42.995Z)
Latitude
-0.00003°
Longitude
-21.4025°
Altitude
883.387 km
Speed
7.414 km/s
True Right ascension
21h 40m 47s
True Declination
0° 00' 00"
Sunlit
Object was in full shadow at epoch
Visualization orbit readout
Latitude
Unknown
Longitude
Unknown
Altitude
Unknown
Speed
Unknown
Apparent Right ascension
Unknown
Apparent Declination
Unknown
Sunlit
N/A
Visualization observer readout
Local Sidereal Time
02:22:51
Azimuth
Unknown
Elevation
Unknown
Doppler factor
Unknown
Orbital elements
Apogee altitude
897.158 km
Perigee altitude
879.803 km
Semi-major axis
7,266.617 km
Eccentricity
0.00119
Inclination
45.007°
RAAN
325.1998°
Arg. of periapsis
294.3496°
True anomaly
65.73381°
Mean anomaly
65.6091°
Eccentric anomaly
65.67145°
Mean motion
3.50384 °/min
Orbital period
102.74 mins
BSTAR
0.000050967
Loading maneuver chart data...
Computing Atmospheric mass density...
Loading historical data...
Loading historical data...
Loading historical data...
Loading historical data...
Loading historical data...
Loading historical data...
Loading historical data...
Other satellites on launch #76 in the year 2019 (2019-11-13 UTC)

Documentation

Showing up to 5 results
|